Flight Track Log - Related Links

Times and Time Zones

All times are in EST time to prevent confusion due to time zone crossing. See the PDT4104 flight status page for this flight to view local times or setup timezone preferences in your user account.

Time Position Orientation Groundspeed Altitude Reporting Facility
EST Latitude Longitude Course Direction KTS MPH feet Rate Location/Type
Wed 01:01:57 PM 39.2500 -76.6500 North 158 182 2,700  Level Potomac TRACON
Wed 01:02:57 PM 39.2500 -76.6000 90° East 199 229 3,700 991 Climbing Potomac TRACON
Wed 01:03:00 PM 39.4308 -75.8765 43° Northeast  Level FlightAware Approximate
Wed 01:03:52 PM 39.2333 -76.5667 123° Southeast 192 221 4,600  Level Potomac TRACON
Wed 01:04:00 PM 39.5455 -75.6037 69° East  Level FlightAware Approximate
Wed 01:04:51 PM 39.1833 -76.5000 134° Southeast 218 251 5,000  Level Potomac TRACON
Wed 01:05:00 PM 39.6319 -75.3051 69° East  Level FlightAware Approximate
Wed 01:05:46 PM 39.1667 -76.4333 108° East 251 289 5,000  Level Potomac TRACON
Wed 01:06:00 PM 39.8656 -75.2335 North  Level FlightAware Approximate
Wed 01:06:51 PM 39.1667 -76.3333 90° East 261 300 5,000  Level Potomac TRACON
Wed 01:07:00 PM 39.8667 -75.2333 North  Level FlightAware Approximate
Wed 01:07:52 PM 39.1500 -76.2333 102° East 265 305 5,000  Level Potomac TRACON
Wed 01:08:52 PM 39.2000 -76.1667 46° Northeast 251 289 5,000  Level Potomac TRACON
Wed 01:10:53 PM 39.3000 -76.0500 42° Northeast 246 283 5,000  Level Philadelphia TRACON
Wed 01:11:53 PM 39.3500 -76.0000 38° Northeast 238 274 5,000  Level Philadelphia TRACON
Wed 01:12:59 PM 39.4000 -75.9333 46° Northeast 243 280 5,000  Level Philadelphia TRACON
Wed 01:13:59 PM 39.4500 -75.8667 46° Northeast 257 296 5,000  Level Philadelphia TRACON
Wed 01:14:59 PM 39.4667 -75.7667 78° East 265 305 5,000  Level Philadelphia TRACON
Wed 01:15:59 PM 39.4833 -75.6833 75° East 269 310 5,000  Level Philadelphia TRACON
Wed 01:16:53 PM 39.4833 -75.6000 90° East 268 308 5,000  Level Philadelphia TRACON
Wed 01:17:53 PM 39.4333 -75.5167 128° Southeast 268 308 5,000  Level Philadelphia TRACON
Wed 01:18:53 PM 39.4167 -75.4333 104° East 274 315 5,000  Level Philadelphia TRACON
Wed 01:19:53 PM 39.4167 -75.3333 90° East 273 314 5,000  Level Philadelphia TRACON
Wed 01:20:53 PM 39.4333 -75.2333 78° East 272 313 5,000  Level Philadelphia TRACON
Wed 01:21:59 PM 39.4500 -75.1500 75° East 250 288 5,000  Level Philadelphia TRACON
Wed 01:22:59 PM 39.4500 -75.0500 90° East 253 291 5,000  Level Philadelphia TRACON
Wed 01:24:05 PM 39.5000 -75.0000 38° Northeast 198 228 5,000  Level Philadelphia TRACON
Wed 01:24:59 PM 39.5500 -75.0000 360° North 203 234 5,000  Level Philadelphia TRACON
Wed 01:26:05 PM 39.6000 -75.0167 346° North 191 220 5,000  Level Philadelphia TRACON
Wed 01:26:59 PM 39.6500 -75.0167 360° North 201 231 5,000  Level Philadelphia TRACON
Wed 01:27:59 PM 39.7000 -75.0500 333° Northwest 181 208 5,000  Level Philadelphia TRACON
Wed 01:28:59 PM 39.7500 -75.0667 346° North 185 213 5,000  Level Philadelphia TRACON
Wed 01:29:59 PM 39.8000 -75.0833 346° North 208 239 5,000  Level Philadelphia TRACON
Wed 01:31:05 PM 39.8333 -75.0000 62° Northeast 249 287 5,000  Level Philadelphia TRACON
Wed 01:31:59 PM 39.8500 -74.9167 75° East 248 285 5,000  Level Philadelphia TRACON
Wed 01:33:05 PM 39.8833 -74.8333 62° Northeast 208 239 5,000 -400 Level Philadelphia TRACON
Wed 01:33:59 PM 39.9333 -74.8167 14° North 170 196 4,200 -500 Descending Philadelphia TRACON
Wed 01:35:05 PM 39.9333 -74.8667 270° West 146 168 4,000 -100 Descending Philadelphia TRACON
Wed 01:35:59 PM 39.9333 -74.9167 270° West 149 171 4,000 -50 Level Philadelphia TRACON
Wed 01:37:05 PM 39.9167 -74.9833 252° West 149 171 3,900 -400 Descending Philadelphia TRACON
Wed 01:37:59 PM 39.9167 -75.0333 270° West 154 177 3,200 -842 Descending Philadelphia TRACON
Wed 01:38:59 PM 39.9000 -75.0833 247° West 158 182 2,300 -810 Descending Philadelphia TRACON
Wed 01:40:05 PM 39.9000 -75.1333 270° West 130 150 1,500 -750 Descending Philadelphia TRACON
Wed 01:40:59 PM 39.8833 -75.1833 247° West 116 133 800 -684 Descending Philadelphia TRACON
Wed 01:41:59 PM 39.8833 -75.2167 270° West 113 130 200 -600 Descending Philadelphia TRACON

Login

Don't have an account? Register now (free) for customized features, flight alerts, and more!